{"data":{"norad_id":60453,"epoch":"2026-05-25T03:15:55.448352Z","epoch_age_seconds":60137,"freshness":"FRESH","line1":"1 60453U 24146B   26145.13605843  .00003967  00000+0  21718-3 0  9999","line2":"2 60453  45.0010 246.0760 0013077 185.9212 174.1514 15.15842838 97375","mean_motion":15.15842838,"eccentricity":0.0013077,"inclination_deg":45.001,"raan_deg":246.076,"arg_perigee_deg":185.9212,"mean_anomaly_deg":174.1514,"bstar":0.00021718,"rev_number":9737,"period_min":94.996655583367,"perigee_km":509.40233282173,"apogee_km":527.43959051468,"semimajor_km":6896.5579616682,"source":"CELESTRAK","updated_at":"2026-05-25T13:38:12.837175Z"}}